PDT,Max TemperatureF,Mean TemperatureF,Min TemperatureF,Max Dew PointF,MeanDew PointF,Min DewpointF,Max Humidity, Mean Humidity, Min Humidity, Max Sea Level PressureIn, Mean Sea Level PressureIn, Min Sea Level PressureIn, Max VisibilityMiles, Mean VisibilityMiles, Min VisibilityMiles, Max Wind SpeedMPH, Mean Wind SpeedMPH, Max Gust SpeedMPH,PrecipitationIn, CloudCover, Events, WindDirDegrees
2013-8-1,84,70,57,53,51,48,70,55,33,29.94,29.91,29.86,10,10,10,31,12,39,0.00,2,,327
2013-8-2,75,66,59,52,50,49,78,60,46,30.05,29.99,29.92,10,10,8,30,20,38,0.09,4,Rain,313
2013-8-3,87,70,53,55,51,48,83,55,30,30.10,30.04,29.98,10,10,10,14,7,20,0.00,0,,82
2013-8-4,95,75,55,56,51,42,83,49,18,30.04,29.97,29.89,10,10,10,10,3,,0.00,1,,30
2013-8-5,97,76,57,57,51,43,78,46,16,29.97,29.91,29.84,10,10,10,17,4,,0.00,0,,327
2013-8-6,98,78,59,53,46,34,67,38,12,29.95,29.89,29.83,10,10,10,20,7,26,0.00,0,,322
2013-8-7,96,82,70,51,44,39,41,28,16,29.91,29.87,29.83,10,10,10,24,17,30,0.00,0,,314
2013-8-8,96,82,68,57,48,39,57,36,14,29.91,29.88,29.83,10,10,10,18,13,28,0.00,0,,313
2013-8-9,99,80,60,62,54,43,78,48,15,29.89,29.83,29.73,10,9,2,17,8,48,0.38,1,Rain,358
2013-8-10,96,78,62,60,57,51,84,53,22,29.93,29.88,29.82,10,10,10,22,9,31,0.01,1,,316
2013-8-11,93,78,64,58,54,46,75,52,20,29.98,29.93,29.88,10,10,10,24,11,33,0.00,1,,307
2013-8-12,91,73,55,55,51,42,83,50,18,30.00,29.95,29.88,10,10,10,17,9,,0.00,0,,341
2013-8-13,95,78,61,54,47,29,70,43,10,30.03,29.96,29.90,10,10,10,18,11,28,0.00,0,Rain,2
2013-8-14,93,73,55,56,51,43,77,51,19,29.97,29.90,29.84,10,10,10,23,5,28,0.00,0,,333
2013-8-15,91,78,68,58,54,48,63,50,25,29.93,29.90,29.87,10,10,10,23,10,31,0.00,0,,310
2013-8-16,90,74,59,56,53,46,78,53,22,29.99,29.95,29.90,10,10,10,16,8,24,0.00,0,,326
2013-8-17,86,75,64,56,53,49,65,50,35,30.01,29.96,29.94,10,10,10,25,14,33,0.00,0,,309
2013-8-18,89,75,61,52,50,46,70,47,24,30.05,30.01,29.96,10,10,10,25,12,33,0.00,0,,306
2013-8-19,84,74,63,51,49,43,63,46,25,30.02,30.00,29.96,10,10,10,30,18,38,0.00,0,,319
2013-8-20,88,72,57,51,44,32,70,41,15,30.06,30.01,29.96,10,10,10,23,16,33,0.00,0,,309
2013-8-21,90,70,50,51,43,37,80,46,16,30.09,30.01,29.94,10,10,10,8,3,,0.00,0,,58
2013-8-22,93,72,52,53,46,39,71,44,16,29.96,29.88,29.77,10,10,10,14,4,,0.00,2,Rain,1
2013-8-23,86,73,64,56,53,50,63,50,32,29.81,29.78,29.74,10,10,10,26,15,33,0.00,4,Rain,313
2013-8-24,84,72,61,50,49,46,65,50,27,29.84,29.80,29.76,10,10,10,26,16,32,0.00,2,,309
2013-8-25,84,71,60,56,49,42,83,53,26,29.89,29.85,29.79,10,10,10,18,10,18,0.01,3,Rain,307
2013-8-26,80,66,52,55,52,47,88,65,37,29.94,29.90,29.86,10,10,6,15,5,20,0.01,2,Rain,3
2013-8-27,88,70,51,55,50,46,83,56,25,29.97,29.87,29.77,10,10,10,10,4,17,0.00,0,,70
2013-8-28,89,74,59,60,55,49,81,58,26,29.88,29.82,29.78,10,10,10,13,4,,0.00,1,Rain,304
2013-8-29,84,72,63,60,55,51,81,57,37,30.02,29.91,29.85,10,10,9,17,7,29,0.05,1,Rain,314
2013-8-30,84,70,59,56,52,47,78,55,29,30.12,30.06,30.01,10,10,10,15,8,22,0.00,0,,308
2013-8-31,89,68,48,52,47,44,83,53,22,30.09,29.99,29.88,10,10,10,12,3,,0.00,0,,68